Year,Month,Day,Hour,Minute,Value (Times are PST for temperature in C)
2011,08,31,00,00,14.00
2011,08,31,00,01,14.00
2011,08,31,00,02,14.00
2011,08,31,00,03,13.90
2011,08,31,00,04,13.90
2011,08,31,00,05,13.90
2011,08,31,00,06,13.90
2011,08,31,00,07,13.80
2011,08,31,00,08,13.80
2011,08,31,00,09,13.80
2011,08,31,00,10,13.80
2011,08,31,00,11,13.80
2011,08,31,00,12,13.80
2011,08,31,00,13,13.80
2011,08,31,00,14,13.70
2011,08,31,00,15,13.70
2011,08,31,00,16,13.70
2011,08,31,00,17,13.70
2011,08,31,00,18,13.70
2011,08,31,00,19,13.70
2011,08,31,00,20,13.70
2011,08,31,00,21,13.70
2011,08,31,00,22,13.60
2011,08,31,00,23,13.60
2011,08,31,00,24,13.60
2011,08,31,00,25,13.60
2011,08,31,00,26,13.60
2011,08,31,00,27,13.60
2011,08,31,00,28,13.60
2011,08,31,00,29,13.50
2011,08,31,00,30,13.50
2011,08,31,00,31,13.50
2011,08,31,00,32,13.50
2011,08,31,00,33,13.40
2011,08,31,00,34,13.40
2011,08,31,00,35,13.40
2011,08,31,00,36,13.40
2011,08,31,00,37,13.30
2011,08,31,00,38,13.30
2011,08,31,00,39,13.30
2011,08,31,00,40,13.30
2011,08,31,00,41,13.30
2011,08,31,00,42,13.30
2011,08,31,00,43,13.20
2011,08,31,00,44,13.20
2011,08,31,00,45,13.20
2011,08,31,00,46,13.20
2011,08,31,00,47,13.20
2011,08,31,00,48,13.20
2011,08,31,00,49,13.10
2011,08,31,00,50,13.10
2011,08,31,00,51,13.10
2011,08,31,00,52,13.10
2011,08,31,00,53,13.00
2011,08,31,00,54,13.00
2011,08,31,00,55,13.00
2011,08,31,00,56,13.00
2011,08,31,00,57,13.00
2011,08,31,00,58,13.00
2011,08,31,00,59,13.00
2011,08,31,01,00,12.90
2011,08,31,01,01,12.90
2011,08,31,01,02,12.90
2011,08,31,01,03,12.90
2011,08,31,01,04,12.90
2011,08,31,01,05,12.90
2011,08,31,01,06,12.90
2011,08,31,01,07,12.80
2011,08,31,01,08,12.80
2011,08,31,01,09,12.80
2011,08,31,01,10,12.80
2011,08,31,01,11,12.80
2011,08,31,01,12,12.80
2011,08,31,01,13,12.80
2011,08,31,01,14,12.80
2011,08,31,01,15,12.80
2011,08,31,01,16,12.80
2011,08,31,01,17,12.80
2011,08,31,01,18,12.80
2011,08,31,01,19,12.80
2011,08,31,01,20,12.80
2011,08,31,01,21,12.80
2011,08,31,01,22,12.80
2011,08,31,01,23,12.80
2011,08,31,01,24,12.80
2011,08,31,01,25,12.80
2011,08,31,01,26,12.80
2011,08,31,01,27,12.80
2011,08,31,01,28,12.80
2011,08,31,01,29,12.80
2011,08,31,01,30,12.80
2011,08,31,01,31,12.80
2011,08,31,01,32,12.80
2011,08,31,01,33,12.80
2011,08,31,01,34,12.80
2011,08,31,01,35,12.80
2011,08,31,01,36,12.80
2011,08,31,01,37,12.80
2011,08,31,01,38,12.70
2011,08,31,01,39,12.70
2011,08,31,01,40,12.70
2011,08,31,01,41,12.70
2011,08,31,01,42,12.70
2011,08,31,01,43,12.70
2011,08,31,01,44,12.70
2011,08,31,01,45,12.70
2011,08,31,01,46,12.70
2011,08,31,01,47,12.70
2011,08,31,01,48,12.70
2011,08,31,01,49,12.70
2011,08,31,01,50,12.70
2011,08,31,01,51,12.70
2011,08,31,01,52,12.70
2011,08,31,01,53,12.70
2011,08,31,01,54,12.70
2011,08,31,01,55,12.70
2011,08,31,01,56,12.60
2011,08,31,01,57,12.60
2011,08,31,01,58,12.60
2011,08,31,01,59,12.60
2011,08,31,02,00,12.60
2011,08,31,02,01,12.60
2011,08,31,02,02,12.60
2011,08,31,02,03,12.50
2011,08,31,02,04,12.50
2011,08,31,02,05,12.50
2011,08,31,02,06,12.50
2011,08,31,02,07,12.40
2011,08,31,02,08,12.40
2011,08,31,02,09,12.40
2011,08,31,02,10,12.40
2011,08,31,02,11,12.40
2011,08,31,02,12,12.40
2011,08,31,02,13,12.40
2011,08,31,02,14,12.40
2011,08,31,02,15,12.40
2011,08,31,02,16,12.40
2011,08,31,02,17,12.40
2011,08,31,02,18,12.40
2011,08,31,02,19,12.40
2011,08,31,02,20,12.40
2011,08,31,02,21,12.40
2011,08,31,02,22,12.40
2011,08,31,02,23,12.40
2011,08,31,02,24,12.40
2011,08,31,02,25,12.40
2011,08,31,02,26,12.40
2011,08,31,02,27,12.40
2011,08,31,02,28,12.40
2011,08,31,02,29,12.40
2011,08,31,02,30,12.40
2011,08,31,02,31,12.40
2011,08,31,02,32,12.40
2011,08,31,02,33,12.40
2011,08,31,02,34,12.40
2011,08,31,02,35,12.40
2011,08,31,02,36,12.40
2011,08,31,02,37,12.40
2011,08,31,02,38,12.40
2011,08,31,02,39,12.40
2011,08,31,02,40,12.40
2011,08,31,02,41,12.40
2011,08,31,02,42,12.40
2011,08,31,02,43,12.40
2011,08,31,02,44,12.50
2011,08,31,02,45,12.50
2011,08,31,02,46,12.50
2011,08,31,02,47,12.50
2011,08,31,02,48,12.50
2011,08,31,02,49,12.50
2011,08,31,02,50,12.50
2011,08,31,02,51,12.50
2011,08,31,02,52,12.50
2011,08,31,02,53,12.50
2011,08,31,02,54,12.50
2011,08,31,02,55,12.50
2011,08,31,02,56,12.50
2011,08,31,02,57,12.50
2011,08,31,02,58,12.50
2011,08,31,02,59,12.40
2011,08,31,03,00,12.40
2011,08,31,03,01,12.40
2011,08,31,03,02,12.40
2011,08,31,03,06,12.40
2011,08,31,03,07,12.40
2011,08,31,03,08,12.40
2011,08,31,03,09,12.40
2011,08,31,03,10,12.50
2011,08,31,03,11,12.50
2011,08,31,03,12,12.50
2011,08,31,03,13,12.50
2011,08,31,03,14,12.50
2011,08,31,03,15,12.40
2011,08,31,03,16,12.40
2011,08,31,03,17,12.40
2011,08,31,03,18,12.40
2011,08,31,03,19,12.40
2011,08,31,03,20,12.40
2011,08,31,03,21,12.30
2011,08,31,03,22,12.30
2011,08,31,03,23,12.30
2011,08,31,03,24,12.30
2011,08,31,03,25,12.30
2011,08,31,03,26,12.30
2011,08,31,03,27,12.30
2011,08,31,03,28,12.30
2011,08,31,03,29,12.30
2011,08,31,03,30,12.30
2011,08,31,03,31,12.30
2011,08,31,03,32,12.30
2011,08,31,03,33,12.30
2011,08,31,03,34,12.30
2011,08,31,03,35,12.30
2011,08,31,03,36,12.30
2011,08,31,03,37,12.30
2011,08,31,03,38,12.30
2011,08,31,03,39,12.20
2011,08,31,03,40,12.20
2011,08,31,03,41,12.20
2011,08,31,03,42,12.20
2011,08,31,03,43,12.20
2011,08,31,03,44,12.20
2011,08,31,03,45,12.20
2011,08,31,03,46,12.20
2011,08,31,03,47,12.20
2011,08,31,03,48,12.20
2011,08,31,03,49,12.20
2011,08,31,03,50,12.20
2011,08,31,03,51,12.20
2011,08,31,03,52,12.20
2011,08,31,03,53,12.20
2011,08,31,03,54,12.20
2011,08,31,03,55,12.20
2011,08,31,03,56,12.20
2011,08,31,03,57,12.10
2011,08,31,03,58,12.10
2011,08,31,03,59,12.10
2011,08,31,04,00,12.10
2011,08,31,04,01,12.10
2011,08,31,04,02,12.10
2011,08,31,04,03,12.10
2011,08,31,04,04,12.20
2011,08,31,04,05,12.20
2011,08,31,04,06,12.20
2011,08,31,04,07,12.20
2011,08,31,04,08,12.20
2011,08,31,04,09,12.20
2011,08,31,04,10,12.20
2011,08,31,04,11,12.20
2011,08,31,04,12,12.20
2011,08,31,04,13,12.20
2011,08,31,04,14,12.20
2011,08,31,04,15,12.20
2011,08,31,04,16,12.20
2011,08,31,04,17,12.20
2011,08,31,04,18,12.20
2011,08,31,04,19,12.20
2011,08,31,04,20,12.20
2011,08,31,04,21,12.20
2011,08,31,04,22,12.20
2011,08,31,04,23,12.10
2011,08,31,04,24,12.10
2011,08,31,04,25,12.10
2011,08,31,04,26,12.10
2011,08,31,04,27,12.10
2011,08,31,04,28,12.10
2011,08,31,04,29,12.10
2011,08,31,04,30,12.10
2011,08,31,04,31,12.20
2011,08,31,04,32,12.10
2011,08,31,04,33,12.10
2011,08,31,04,34,12.10
2011,08,31,04,35,12.10
2011,08,31,04,36,12.10
2011,08,31,04,37,12.10
2011,08,31,04,38,12.00
2011,08,31,04,39,12.00
2011,08,31,04,40,12.00
2011,08,31,04,41,12.00
2011,08,31,04,42,11.90
2011,08,31,04,43,11.90
2011,08,31,04,44,11.90
2011,08,31,04,45,11.90
2011,08,31,04,46,11.80
2011,08,31,04,47,11.80
2011,08,31,04,48,11.80
2011,08,31,04,49,11.80
2011,08,31,04,50,11.80
2011,08,31,04,51,11.80
2011,08,31,04,52,11.80
2011,08,31,04,53,11.70
2011,08,31,04,54,11.70
2011,08,31,04,55,11.70
2011,08,31,04,56,11.70
2011,08,31,04,57,11.70
2011,08,31,04,58,11.60
2011,08,31,04,59,11.60
2011,08,31,05,00,11.60
2011,08,31,05,01,11.60
2011,08,31,05,02,11.60
2011,08,31,05,03,11.60
2011,08,31,05,04,11.60
2011,08,31,05,05,11.60
2011,08,31,05,06,11.60
2011,08,31,05,07,11.60
2011,08,31,05,08,11.60
2011,08,31,05,09,11.60
2011,08,31,05,10,11.60
2011,08,31,05,11,11.60
2011,08,31,05,12,11.60
2011,08,31,05,13,11.60
2011,08,31,05,14,11.60
2011,08,31,05,15,11.60
2011,08,31,05,16,11.60
2011,08,31,05,17,11.50
2011,08,31,05,18,11.50
2011,08,31,05,19,11.50
2011,08,31,05,20,11.60
2011,08,31,05,21,11.60
2011,08,31,05,22,11.60
2011,08,31,05,23,11.60
2011,08,31,05,24,11.50
2011,08,31,05,25,11.50
2011,08,31,05,26,11.50
2011,08,31,05,27,11.50
2011,08,31,05,28,11.50
2011,08,31,05,29,11.50
2011,08,31,05,30,11.50
2011,08,31,05,31,11.50
2011,08,31,05,32,11.50
2011,08,31,05,33,11.50
2011,08,31,05,34,11.50
2011,08,31,05,35,11.50
2011,08,31,05,36,11.50
2011,08,31,05,37,11.50
2011,08,31,05,38,11.50
2011,08,31,05,39,11.50
2011,08,31,05,40,11.50
2011,08,31,05,41,11.50
2011,08,31,05,42,11.40
2011,08,31,05,43,11.40
2011,08,31,05,44,11.40
2011,08,31,05,45,11.40
2011,08,31,05,46,11.40
2011,08,31,05,47,11.40
2011,08,31,05,48,11.40
2011,08,31,05,49,11.40
2011,08,31,05,50,11.40
2011,08,31,05,51,11.40
2011,08,31,05,52,11.50
2011,08,31,05,53,11.50
2011,08,31,05,54,11.50
2011,08,31,05,55,11.50
2011,08,31,05,56,11.50
2011,08,31,05,57,11.50
2011,08,31,05,58,11.50
2011,08,31,05,59,11.50
2011,08,31,06,00,11.50
2011,08,31,06,01,11.50
2011,08,31,06,02,11.50
2011,08,31,06,03,11.50
2011,08,31,06,04,11.50
2011,08,31,06,05,11.60
2011,08,31,06,06,11.60
2011,08,31,06,07,11.60
2011,08,31,06,08,11.60
2011,08,31,06,09,11.60
2011,08,31,06,10,11.60
2011,08,31,06,11,11.60
2011,08,31,06,12,11.60
2011,08,31,06,13,11.60
2011,08,31,06,14,11.60
2011,08,31,06,15,11.60
2011,08,31,06,16,11.60
2011,08,31,06,17,11.60
2011,08,31,06,18,11.60
2011,08,31,06,19,11.60
2011,08,31,06,20,11.60
2011,08,31,06,21,11.60
2011,08,31,06,22,11.60
2011,08,31,06,23,11.60
2011,08,31,06,24,11.60
2011,08,31,06,25,11.60
2011,08,31,06,26,11.60
2011,08,31,06,27,11.60
2011,08,31,06,28,11.60
2011,08,31,06,29,11.60
2011,08,31,06,30,11.60
2011,08,31,06,31,11.60
2011,08,31,06,32,11.60
2011,08,31,06,33,11.60
2011,08,31,06,34,11.60
2011,08,31,06,35,11.60
2011,08,31,06,36,11.60
2011,08,31,06,37,11.50
2011,08,31,06,38,11.50
2011,08,31,06,39,11.50
2011,08,31,06,40,11.50
2011,08,31,06,41,11.50
2011,08,31,06,42,11.40
2011,08,31,06,43,11.40
2011,08,31,06,44,11.40
2011,08,31,06,45,11.40
2011,08,31,06,46,11.40
2011,08,31,06,47,11.40
2011,08,31,06,48,11.40
2011,08,31,06,49,11.40
2011,08,31,06,50,11.40
2011,08,31,06,51,11.40
2011,08,31,06,52,11.40
2011,08,31,06,53,11.40
2011,08,31,06,54,11.40
2011,08,31,06,55,11.40
2011,08,31,06,56,11.40
2011,08,31,06,57,11.40
2011,08,31,06,58,11.40
2011,08,31,06,59,11.40
2011,08,31,07,00,11.40
2011,08,31,07,01,11.40
2011,08,31,07,02,11.40
2011,08,31,07,03,11.40
2011,08,31,07,04,11.40
2011,08,31,07,05,11.40
2011,08,31,07,06,11.50
2011,08,31,07,07,11.50
2011,08,31,07,08,11.50
2011,08,31,07,09,11.50
2011,08,31,07,10,11.50
2011,08,31,07,11,11.60
2011,08,31,07,12,11.60
2011,08,31,07,13,11.60
2011,08,31,07,14,11.60
2011,08,31,07,15,11.70
2011,08,31,07,16,11.70
2011,08,31,07,17,11.70
2011,08,31,07,18,11.70
2011,08,31,07,19,11.70
2011,08,31,07,20,11.80
2011,08,31,07,21,11.80
2011,08,31,07,22,11.90
2011,08,31,07,23,11.90
2011,08,31,07,24,12.00
2011,08,31,07,25,12.00
2011,08,31,07,26,12.00
2011,08,31,07,27,12.10
2011,08,31,07,28,12.10
2011,08,31,07,29,12.10
2011,08,31,07,30,12.20
2011,08,31,07,31,12.20
2011,08,31,07,32,12.20
2011,08,31,07,33,12.20
2011,08,31,07,34,12.20
2011,08,31,07,35,12.20
2011,08,31,07,36,12.20
2011,08,31,07,37,12.20
2011,08,31,07,38,12.20
2011,08,31,07,39,12.20
2011,08,31,07,40,12.30
2011,08,31,07,41,12.30
2011,08,31,07,42,12.30
2011,08,31,07,43,12.30
2011,08,31,07,44,12.30
2011,08,31,07,45,12.30
2011,08,31,07,46,12.30
2011,08,31,07,47,12.30
2011,08,31,07,48,12.30
2011,08,31,07,49,12.20
2011,08,31,07,50,12.20
2011,08,31,07,51,12.20
2011,08,31,07,52,12.20
2011,08,31,07,53,12.20
2011,08,31,07,54,12.20
2011,08,31,07,55,12.20
2011,08,31,07,56,12.20
2011,08,31,07,57,12.20
2011,08,31,07,58,12.20
2011,08,31,07,59,12.20
2011,08,31,08,00,12.20
2011,08,31,08,01,12.30
2011,08,31,08,02,12.30
2011,08,31,08,03,12.30
2011,08,31,08,04,12.30
2011,08,31,08,05,12.40
2011,08,31,08,06,12.40
2011,08,31,08,07,12.50
2011,08,31,08,08,12.50
2011,08,31,08,09,12.60
2011,08,31,08,10,12.60
2011,08,31,08,11,12.70
2011,08,31,08,12,12.70
2011,08,31,08,13,12.70
2011,08,31,08,14,12.80
2011,08,31,08,15,12.80
2011,08,31,08,16,12.80
2011,08,31,08,17,12.80
2011,08,31,08,18,12.90
2011,08,31,08,19,12.90
2011,08,31,08,20,13.00
2011,08,31,08,21,13.00
2011,08,31,08,22,13.00
2011,08,31,08,23,13.00
2011,08,31,08,24,13.10
2011,08,31,08,25,13.10
2011,08,31,08,26,13.10
2011,08,31,08,27,13.10
2011,08,31,08,28,13.10
2011,08,31,08,29,13.20
2011,08,31,08,30,13.20
2011,08,31,08,31,13.30
2011,08,31,08,32,13.30
2011,08,31,08,33,13.30
2011,08,31,08,34,13.40
2011,08,31,08,35,13.40
2011,08,31,08,36,13.50
2011,08,31,08,37,13.60
2011,08,31,08,38,13.60
2011,08,31,08,39,13.60
2011,08,31,08,40,13.60
2011,08,31,08,41,13.60
2011,08,31,08,42,13.60
2011,08,31,08,43,13.60
2011,08,31,08,44,13.60
2011,08,31,08,45,13.60
2011,08,31,08,46,13.60
2011,08,31,08,47,13.60
2011,08,31,08,48,13.60
2011,08,31,08,49,13.60
2011,08,31,08,50,13.60
2011,08,31,08,51,13.60
2011,08,31,08,52,13.60
2011,08,31,08,53,13.60
2011,08,31,08,54,13.60
2011,08,31,08,55,13.70
2011,08,31,08,56,13.70
2011,08,31,08,57,13.70
2011,08,31,08,58,13.70
2011,08,31,08,59,13.80
2011,08,31,09,00,13.80
2011,08,31,09,01,13.80
2011,08,31,09,02,13.80
2011,08,31,09,03,13.80
2011,08,31,09,04,13.80
2011,08,31,09,05,13.70
2011,08,31,09,06,13.70
2011,08,31,09,07,13.70
2011,08,31,09,08,13.70
2011,08,31,09,09,13.70
2011,08,31,09,10,13.70
2011,08,31,09,11,13.60
2011,08,31,09,12,13.60
2011,08,31,09,13,13.60
2011,08,31,09,14,13.50
2011,08,31,09,15,13.50
2011,08,31,09,16,13.40
2011,08,31,09,17,13.50
2011,08,31,09,18,13.50
2011,08,31,09,19,13.60
2011,08,31,09,20,13.60
2011,08,31,09,21,13.70
2011,08,31,09,22,13.70
2011,08,31,09,23,13.80
2011,08,31,09,24,13.80
2011,08,31,09,25,13.90
2011,08,31,09,26,13.90
2011,08,31,09,27,14.00
2011,08,31,09,28,14.10
2011,08,31,09,29,14.30
2011,08,31,09,30,14.30
2011,08,31,09,31,14.40
2011,08,31,09,32,14.40
2011,08,31,09,33,14.40
2011,08,31,09,34,14.40
2011,08,31,09,35,14.40
2011,08,31,09,36,14.40
2011,08,31,09,37,14.40
2011,08,31,09,38,14.40
2011,08,31,09,39,14.30
2011,08,31,09,40,14.30
2011,08,31,09,41,14.30
2011,08,31,09,42,14.30
2011,08,31,09,43,14.30
2011,08,31,09,44,14.30
2011,08,31,09,45,14.30
2011,08,31,09,46,14.30
2011,08,31,09,47,14.30
2011,08,31,09,48,14.30
2011,08,31,09,49,14.30
2011,08,31,09,50,14.30
2011,08,31,09,51,14.30
2011,08,31,09,52,14.30
2011,08,31,09,53,14.40
2011,08,31,09,54,14.40
2011,08,31,09,55,14.40
2011,08,31,09,56,14.50
2011,08,31,09,57,14.50
2011,08,31,09,58,14.60
2011,08,31,09,59,14.60
2011,08,31,10,00,14.60
2011,08,31,10,01,14.60
2011,08,31,10,02,14.60
2011,08,31,10,03,14.60
2011,08,31,10,04,14.60
2011,08,31,10,05,14.60
2011,08,31,10,06,14.60
2011,08,31,10,07,14.60
2011,08,31,10,08,14.60
2011,08,31,10,09,14.70
2011,08,31,10,10,14.70
2011,08,31,10,11,14.70
2011,08,31,10,12,14.80
2011,08,31,10,13,14.80
2011,08,31,10,14,14.80
2011,08,31,10,15,14.80
2011,08,31,10,16,14.90
2011,08,31,10,17,15.00
2011,08,31,10,18,15.00
2011,08,31,10,19,15.00
2011,08,31,10,20,15.00
2011,08,31,10,21,15.00
2011,08,31,10,22,15.00
2011,08,31,10,23,15.00
2011,08,31,10,24,15.00
2011,08,31,10,25,15.00
2011,08,31,10,26,15.00
2011,08,31,10,27,15.00
2011,08,31,10,28,15.00
2011,08,31,10,29,15.00
2011,08,31,10,30,15.00
2011,08,31,10,31,15.10
2011,08,31,10,32,15.10
2011,08,31,10,33,15.20
2011,08,31,10,34,15.20
2011,08,31,10,35,15.30
2011,08,31,10,36,15.30
2011,08,31,10,37,15.30
2011,08,31,10,38,15.40
2011,08,31,10,39,15.40
2011,08,31,10,40,15.50
2011,08,31,10,41,15.50
2011,08,31,10,42,15.50
2011,08,31,10,43,15.40
2011,08,31,10,44,15.40
2011,08,31,10,45,15.50
2011,08,31,10,46,15.60
2011,08,31,10,47,15.60
2011,08,31,10,48,15.60
2011,08,31,10,49,15.60
2011,08,31,10,50,15.70
2011,08,31,10,51,15.80
2011,08,31,10,52,15.80
2011,08,31,10,53,15.80
2011,08,31,10,54,15.80
2011,08,31,10,55,15.80
2011,08,31,10,56,15.80
2011,08,31,10,57,15.80
2011,08,31,10,58,15.90
2011,08,31,10,59,16.00
2011,08,31,11,00,16.10
2011,08,31,11,01,16.10
2011,08,31,11,02,16.10
2011,08,31,11,03,16.10
2011,08,31,11,04,16.10
2011,08,31,11,05,16.20
2011,08,31,11,06,16.20
2011,08,31,11,07,16.20
2011,08,31,11,08,16.10
2011,08,31,11,09,16.10
2011,08,31,11,10,16.10
2011,08,31,11,11,16.00
2011,08,31,11,12,15.90
2011,08,31,11,13,15.90
2011,08,31,11,14,15.90
2011,08,31,11,15,15.90
2011,08,31,11,16,15.90
2011,08,31,11,17,16.00
2011,08,31,11,18,16.00
2011,08,31,11,19,16.00
2011,08,31,11,20,16.00
2011,08,31,11,21,16.00
2011,08,31,11,22,16.00
2011,08,31,11,23,16.10
2011,08,31,11,24,16.10
2011,08,31,11,25,16.00
2011,08,31,11,26,16.00
2011,08,31,11,27,16.00
2011,08,31,11,28,16.10
2011,08,31,11,29,16.10
2011,08,31,11,30,16.10
2011,08,31,11,31,16.10
2011,08,31,11,32,16.10
2011,08,31,11,33,16.10
2011,08,31,11,34,16.00
2011,08,31,11,35,15.90
2011,08,31,11,36,15.90
2011,08,31,11,37,16.00
2011,08,31,11,38,16.10
2011,08,31,11,39,16.20
2011,08,31,11,40,16.20
2011,08,31,11,41,16.30
2011,08,31,11,42,16.40
2011,08,31,11,43,16.60
2011,08,31,11,44,16.80
2011,08,31,11,45,16.90
2011,08,31,11,46,16.90
2011,08,31,11,47,16.90
2011,08,31,11,48,16.80
2011,08,31,11,49,16.70
2011,08,31,11,50,16.70
2011,08,31,11,51,16.70
2011,08,31,11,52,16.70
2011,08,31,11,53,16.70
2011,08,31,11,54,16.70
2011,08,31,11,55,16.70
2011,08,31,11,56,16.80
2011,08,31,11,57,16.80
2011,08,31,11,58,16.80
2011,08,31,11,59,16.90
2011,08,31,12,00,16.90
2011,08,31,12,01,17.00
2011,08,31,12,02,17.10
2011,08,31,12,03,17.10
2011,08,31,12,04,17.10
2011,08,31,12,05,17.20
2011,08,31,12,06,17.30
2011,08,31,12,07,17.40
2011,08,31,12,08,17.50
2011,08,31,12,09,17.50
2011,08,31,12,10,17.60
2011,08,31,12,11,17.60
2011,08,31,12,12,17.60
2011,08,31,12,13,17.60
2011,08,31,12,14,17.60
2011,08,31,12,15,17.50
2011,08,31,12,16,17.50
2011,08,31,12,17,17.40
2011,08,31,12,18,17.30
2011,08,31,12,19,17.30
2011,08,31,12,20,17.30
2011,08,31,12,21,17.30
2011,08,31,12,22,17.30
2011,08,31,12,23,17.30
2011,08,31,12,24,17.40
2011,08,31,12,25,17.40
2011,08,31,12,26,17.50
2011,08,31,12,27,17.70
2011,08,31,12,28,17.70
2011,08,31,12,29,17.70
2011,08,31,12,30,17.70
2011,08,31,12,31,17.70
2011,08,31,12,32,17.70
2011,08,31,12,33,17.60
2011,08,31,12,34,17.60
2011,08,31,12,35,17.60
2011,08,31,12,36,17.60
2011,08,31,12,37,17.60
2011,08,31,12,38,17.60
2011,08,31,12,39,17.60
2011,08,31,12,40,17.70
2011,08,31,12,41,17.70
2011,08,31,12,42,17.70
2011,08,31,12,43,17.70
2011,08,31,12,44,17.70
2011,08,31,12,45,17.70
2011,08,31,12,46,17.70
2011,08,31,12,47,17.70
2011,08,31,12,48,17.70
2011,08,31,12,49,17.70
2011,08,31,12,50,17.70
2011,08,31,12,51,17.70
2011,08,31,12,52,17.70
2011,08,31,12,53,17.70
2011,08,31,12,54,17.60
2011,08,31,12,55,17.70
2011,08,31,12,56,17.80
2011,08,31,12,57,17.90
2011,08,31,12,58,18.00
2011,08,31,12,59,18.10
2011,08,31,13,00,18.10
2011,08,31,13,01,18.20
2011,08,31,13,02,18.20
2011,08,31,13,03,18.20
2011,08,31,13,04,18.30
2011,08,31,13,05,18.30
2011,08,31,13,06,18.30
2011,08,31,13,07,18.30
2011,08,31,13,08,18.40
2011,08,31,13,09,18.40
2011,08,31,13,10,18.40
2011,08,31,13,11,18.50
2011,08,31,13,12,18.40
2011,08,31,13,13,18.40
2011,08,31,13,14,18.50
2011,08,31,13,15,18.50
2011,08,31,13,16,18.60
2011,08,31,13,17,18.50
2011,08,31,13,18,18.50
2011,08,31,13,19,18.50
2011,08,31,13,20,18.60
2011,08,31,13,21,18.70
2011,08,31,13,22,18.60
2011,08,31,13,23,18.60
2011,08,31,13,24,18.60
2011,08,31,13,25,18.60
2011,08,31,13,26,18.60
2011,08,31,13,27,18.60
2011,08,31,13,28,18.60
2011,08,31,13,29,18.70
2011,08,31,13,30,18.70
2011,08,31,13,31,18.70
2011,08,31,13,32,18.80
2011,08,31,13,33,18.80
2011,08,31,13,34,18.80
2011,08,31,13,35,18.80
2011,08,31,13,36,18.70
2011,08,31,13,37,18.70
2011,08,31,13,38,18.80
2011,08,31,13,39,18.80
2011,08,31,13,40,18.80
2011,08,31,13,41,18.80
2011,08,31,13,42,18.80
2011,08,31,13,43,18.80
2011,08,31,13,44,18.80
2011,08,31,13,45,18.80
2011,08,31,13,46,18.80
2011,08,31,13,47,18.80
2011,08,31,13,48,18.70
2011,08,31,13,49,18.80
2011,08,31,13,50,18.80
2011,08,31,13,51,18.70
2011,08,31,13,52,18.70
2011,08,31,13,53,18.80
2011,08,31,13,54,18.80
2011,08,31,13,55,18.90
2011,08,31,13,56,18.90
2011,08,31,13,57,18.90
2011,08,31,13,58,18.90
2011,08,31,13,59,18.90
2011,08,31,14,00,18.90
2011,08,31,14,01,18.80
2011,08,31,14,02,18.70
2011,08,31,14,03,18.70
2011,08,31,14,04,18.60
2011,08,31,14,05,18.60
2011,08,31,14,06,18.60
2011,08,31,14,07,18.60
2011,08,31,14,08,18.70
2011,08,31,14,09,18.70
2011,08,31,14,10,18.70
2011,08,31,14,11,18.70
2011,08,31,14,12,18.70
2011,08,31,14,13,18.70
2011,08,31,14,14,18.80
2011,08,31,14,15,18.80
2011,08,31,14,16,18.90
2011,08,31,14,17,19.00
2011,08,31,14,18,19.00
2011,08,31,14,19,19.00
2011,08,31,14,20,19.00
2011,08,31,14,21,19.00
2011,08,31,14,22,19.00
2011,08,31,14,23,19.00
2011,08,31,14,24,19.00
2011,08,31,14,25,19.00
2011,08,31,14,26,19.00
2011,08,31,14,27,19.10
2011,08,31,14,28,19.10
2011,08,31,14,29,19.20
2011,08,31,14,30,19.30
2011,08,31,14,31,19.30
2011,08,31,14,32,19.30
2011,08,31,14,33,19.30
2011,08,31,14,34,19.20
2011,08,31,14,35,19.20
2011,08,31,14,36,19.10
2011,08,31,14,37,19.20
2011,08,31,14,38,19.20
2011,08,31,14,39,19.30
2011,08,31,14,40,19.30
2011,08,31,14,41,19.40
2011,08,31,14,42,19.40
2011,08,31,14,43,19.40
2011,08,31,14,44,19.40
2011,08,31,14,45,19.40
2011,08,31,14,46,19.30
2011,08,31,14,47,19.30
2011,08,31,14,48,19.20
2011,08,31,14,49,19.10
2011,08,31,14,50,19.10
2011,08,31,14,51,19.10
2011,08,31,14,52,19.10
2011,08,31,14,53,19.10
2011,08,31,14,54,19.10
2011,08,31,14,55,19.00
2011,08,31,14,56,19.00
2011,08,31,14,57,18.90
2011,08,31,14,58,19.00
2011,08,31,14,59,19.10
2011,08,31,15,00,19.20
2011,08,31,15,01,19.30
2011,08,31,15,02,19.40
2011,08,31,15,03,19.40
2011,08,31,15,04,19.40
2011,08,31,15,05,19.50
2011,08,31,15,06,19.50
2011,08,31,15,07,19.60
2011,08,31,15,08,19.60
2011,08,31,15,09,19.60
2011,08,31,15,10,19.60
2011,08,31,15,11,19.60
2011,08,31,15,12,19.50
2011,08,31,15,13,19.50
2011,08,31,15,14,19.40
2011,08,31,15,15,19.40
2011,08,31,15,16,19.40
2011,08,31,15,17,19.40
2011,08,31,15,18,19.40
2011,08,31,15,19,19.40
2011,08,31,15,20,19.50
2011,08,31,15,21,19.60
2011,08,31,15,22,19.70
2011,08,31,15,23,19.70
2011,08,31,15,24,19.70
2011,08,31,15,25,19.70
2011,08,31,15,26,19.60
2011,08,31,15,27,19.50
2011,08,31,15,28,19.50
2011,08,31,15,29,19.50
2011,08,31,15,30,19.50
2011,08,31,15,31,19.50
2011,08,31,15,32,19.50
2011,08,31,15,33,19.40
2011,08,31,15,34,19.40
2011,08,31,15,35,19.40
2011,08,31,15,36,19.40
2011,08,31,15,37,19.40
2011,08,31,15,38,19.40
2011,08,31,15,39,19.40
2011,08,31,15,40,19.50
2011,08,31,15,41,19.50
2011,08,31,15,42,19.50
2011,08,31,15,43,19.50
2011,08,31,15,44,19.50
2011,08,31,15,45,19.60
2011,08,31,15,46,19.70
2011,08,31,15,47,19.70
2011,08,31,15,48,19.70
2011,08,31,15,49,19.70
2011,08,31,15,50,19.80
2011,08,31,15,51,19.80
2011,08,31,15,52,19.90
2011,08,31,15,53,19.90
2011,08,31,15,54,19.90
2011,08,31,15,55,20.00
2011,08,31,15,56,20.10
2011,08,31,15,57,20.20
2011,08,31,15,58,20.30
2011,08,31,15,59,20.30
2011,08,31,16,00,20.30
2011,08,31,16,01,20.30
2011,08,31,16,02,20.30
2011,08,31,16,03,20.30
2011,08,31,16,04,20.30
2011,08,31,16,05,20.40
2011,08,31,16,06,20.50
2011,08,31,16,07,20.50
2011,08,31,16,08,20.50
2011,08,31,16,09,20.50
2011,08,31,16,10,20.50
2011,08,31,16,11,20.50
2011,08,31,16,12,20.40
2011,08,31,16,13,20.40
2011,08,31,16,14,20.30
2011,08,31,16,15,20.40
2011,08,31,16,16,20.40
2011,08,31,16,17,20.30
2011,08,31,16,18,20.30
2011,08,31,16,19,20.40
2011,08,31,16,20,20.40
2011,08,31,16,21,20.40
2011,08,31,16,22,20.40
2011,08,31,16,23,20.40
2011,08,31,16,24,20.40
2011,08,31,16,25,20.40
2011,08,31,16,26,20.40
2011,08,31,16,27,20.30
2011,08,31,16,28,20.30
2011,08,31,16,29,20.40
2011,08,31,16,30,20.40
2011,08,31,16,31,20.50
2011,08,31,16,32,20.50
2011,08,31,16,33,20.60
2011,08,31,16,34,20.60
2011,08,31,16,35,20.50
2011,08,31,16,36,20.50
2011,08,31,16,37,20.40
2011,08,31,16,38,20.40
2011,08,31,16,39,20.40
2011,08,31,16,40,20.40
2011,08,31,16,41,20.40
2011,08,31,16,42,20.40
2011,08,31,16,43,20.30
2011,08,31,16,44,20.20
2011,08,31,16,45,20.20
2011,08,31,16,46,20.20
2011,08,31,16,47,20.20
2011,08,31,16,48,20.20
2011,08,31,16,49,20.20
2011,08,31,16,50,20.30
2011,08,31,16,51,20.40
2011,08,31,16,52,20.50
2011,08,31,16,53,20.60
2011,08,31,16,54,20.60
2011,08,31,16,55,20.60
2011,08,31,16,56,20.60
2011,08,31,16,57,20.50
2011,08,31,16,58,20.40
2011,08,31,16,59,20.50
2011,08,31,17,00,20.40
2011,08,31,17,01,20.50
2011,08,31,17,02,20.60
2011,08,31,17,03,20.60
2011,08,31,17,04,20.70
2011,08,31,17,05,20.80
2011,08,31,17,06,20.80
2011,08,31,17,07,20.80
2011,08,31,17,08,20.80
2011,08,31,17,09,20.80
2011,08,31,17,10,20.90
2011,08,31,17,11,21.00
2011,08,31,17,12,21.00
2011,08,31,17,13,21.00
2011,08,31,17,14,21.00
2011,08,31,17,15,21.00
2011,08,31,17,16,21.10
2011,08,31,17,17,21.00
2011,08,31,17,18,20.90
2011,08,31,17,19,20.90
2011,08,31,17,20,20.80
2011,08,31,17,21,20.70
2011,08,31,17,22,20.70